Terminal Aerodrome Forecast
Issued by NWS Shreveport, LA

Home | Current Version | Previous Version | Text Only | Print | Product List | Glossary On
Versions: 1 2 3 4 5 6 7 8 9 10 11 12 13 14 15 16 17 18 19 20
000
FTUS44 KSHV 210500
TAFLFK
TAF
KLFK 210539Z 2106/2206 00000KT P6SM SKC
      TEMPO 2109/2113 3SM BR
     FM211700 VRB04KT P6SM SCT045 SCT250
     FM220100 VRB03KT P6SM SCT250=

USA.gov is the U.S. government's official web portal to all federal, state and local government web resources and services.